This is the latest recevied weather packets stored in our database for station/object K6CQU-13. If no packets are shown the sender has not sent any weather packets the latest 10 day(s).
| Time | Temp. | Humidity | Pressure | Rain* | Wind** | Luminosity | Snow |
|---|---|---|---|---|---|---|---|
| 1788058817 | 24.44° C | 38% | 1010.9 hPa | 0 mm | - | 0 W/m² | - |
| 1788058517 | 24.44° C | 37% | 1010.8 hPa | 0 mm | - | 0 W/m² | - |
| 1788058217 | 25° C | 36% | 1010.8 hPa | 0 mm | - | 0 W/m² | - |
| 1788057917 | 25.56° C | 34% | 1010.8 hPa | 0 mm | - | 3 W/m² | - |
| 1788057617 | 25.56° C | 34% | 1010.8 hPa | 0 mm | - | 6 W/m² | - |
| 1788057317 | 26.11° C | 32% | 1010.8 hPa | 0 mm | - | 8 W/m² | - |
| 1788057017 | 26.67° C | 31% | 1010.8 hPa | 0 mm | - | 11 W/m² | - |
| 1788056717 | 26.67° C | 31% | 1010.8 hPa | 0 mm | - | 13 W/m² | - |
| 1788056417 | 26.67° C | 31% | 1010.8 hPa | 0 mm | - | 16 W/m² | - |
| 1788056117 | 26.67° C | 33% | 1010.8 hPa | 0 mm | - | 18 W/m² | - |
| 1788055817 | 26.67° C | 33% | 1010.9 hPa | 0 mm | - | 18 W/m² | - |
| 1788055517 | 26.67° C | 34% | 1010.8 hPa | 0 mm | - | 19 W/m² | - |
| 1788055217 | 26.11° C | 34% | 1010.9 hPa | 0 mm | - | 20 W/m² | - |
| 1788054917 | 26.67° C | 47% | 1011 hPa | 0 mm | - | 21 W/m² | - |
| 1788054617 | 27.22° C | 46% | 1011.1 hPa | 0 mm | - | 23 W/m² | - |
| 1788054317 | 27.22° C | 45% | 1011 hPa | 0 mm | - | 24 W/m² | - |
| 1788054017 | 27.78° C | 44% | 1011 hPa | 0 mm | - | 25 W/m² | - |
| 1788053717 | 28.33° C | 41% | 1011 hPa | 0 mm | - | 26 W/m² | - |
| 1788053417 | 28.33° C | 39% | 1011 hPa | 0 mm | - | 27 W/m² | - |
| 1788053117 | 28.89° C | 37% | 1011 hPa | 0 mm | - | 30 W/m² | - |
| 1788052817 | 28.89° C | 35% | 1011 hPa | 0 mm | - | 49 W/m² | - |
| 1788052517 | 30° C | 34% | 1011 hPa | 0 mm | - | 112 W/m² | - |
| 1788052217 | 30.56° C | 34% | 1011 hPa | 0 mm | - | 211 W/m² | - |
| 1788051917 | 31.11° C | 18% | 1011 hPa | 0 mm | - | 271 W/m² | - |
| 1788051617 | 31.11° C | 19% | 1011 hPa | 0 mm | - | 292 W/m² | - |
* Rain latest hour (hover to see other rain measurements)
** Current wind speed in m/s (hover to see current wind gust speed)